{"data":{"norad_id":55318,"intl_designator":"2023-010BB","name":"STARLINK-5180","alt_names":[],"object_type":"PAYLOAD","status":"ACTIVE","operator":null,"country":"US","launch_date":"2023-01-19","launch_site_code":"AFWTR","launch_vehicle":null,"mission":null,"orbit_class":"UNKNOWN","rcs_meters":null,"size_class":null,"mass_kg":null,"dimensions":null,"purposes":["comms"],"wikipedia_slug":null,"has_3d_model":false,"image_url":null,"decayed_at":null,"tle_current":{"epoch":"2026-05-25T03:16:04.230048Z","epoch_age_seconds":64077,"freshness":"FRESH","line1":"1 55318U 23010BB  26145.13616007  .00000378  00000+0  39470-4 0  9994","line2":"2 55318  69.9987 171.6891 0003388 268.0968  91.9803 14.98330526186091","mean_motion":14.98330526,"eccentricity":0.0003388,"inclination_deg":69.9987,"raan_deg":171.6891,"arg_perigee_deg":268.0968,"mean_anomaly_deg":91.9803,"bstar":3.947e-5,"rev_number":18609,"period_min":96.106965386621,"perigee_km":569.69953953293,"apogee_km":574.40898913364,"semimajor_km":6950.1912643333,"source":"CELESTRAK","updated_at":"2026-05-25T13:38:17.758929Z"}}}